GW6879 Weather Reports


time (UTC)temp
F
wind
direction
speed
knots
gust
knots
rain 1hr
in
rain 24hr
in
rain mn
in
humidity
%
barometer
mb
20260504175017 51 174 4.3 13.9 0.01 0.01 0.01 57 1015.2
20260504160208 52 236 0.0 4.3 0.00 0.00 0.00 52 1015.4
20260504151056 52 180 1.7 5.2 0.00 0.00 0.00 52 1016.0
20260504150553 53 209 2.6 7.0 0.00 0.00 0.00 50 1016.0
20260504150119 54 207 2.6 7.0 0.00 0.00 0.00 49 1015.8
20260504141115 47 154 2.6 8.7 0.00 0.00 0.00 59 1015.7
20260504140621 47 178 1.7 8.7 0.00 0.00 0.00 59 1015.7
20260504140112 47 159 2.6 7.8 0.00 0.00 0.00 59 1015.6
20260504130612 47 143 5.2 11.3 0.00 0.00 0.00 59 1014.9
20260504130109 47 144 4.3 7.8 0.00 0.00 0.00 59 1014.6
20260504120255 47 184 3.5 8.7 0.00 0.00 0.00 57 1014.8
20260504120154 47 161 4.3 7.8 0.00 0.00 0.00 57 1014.8
20260504120130 48 152 2.6 7.8 0.00 0.00 0.00 56 1014.9
20260504090140 50 169 3.5 9.6 0.00 0.00 0.00 33 1014.5
20260504070201 51 139 0.9 3.5 0.00 0.00 0.00 28 1014.7
20260504050607 52 136 0.9 3.5 0.00 0.00 0.00 30 1015.5
20260504050204 52 129 1.7 3.5 0.00 0.00 0.00 30 1015.5
20260504045624 52 126 0.9 3.5 0.00 0.00 0.00 30 1015.7
20260504045115 52 128 0.9 3.5 0.00 0.00 0.00 29 1015.7
20260504044633 52 134 0.9 2.6 0.00 0.00 0.00 29 1015.6
20260504044112 52 142 0.9 2.6 0.00 0.00 0.00 29 1015.8
20260504043627 52 126 0.9 3.5 0.00 0.00 0.00 29 1015.7
20260504043210 53 131 0.9 3.5 0.00 0.00 0.00 29 1015.8
20260504042606 53 131 0.9 3.5 0.00 0.00 0.00 28 1015.9
20260504042112 54 122 0.0 1.7 0.00 0.00 0.00 28 1015.9
20260504041653 54 159 0.0 1.7 0.00 0.00 0.00 27 1015.9
20260504041052 54 150 0.9 1.7 0.00 0.00 0.00 26 1015.9
20260504040614 54 144 0.0 1.7 0.00 0.00 0.00 26 1016.0
20260504040205 55 164 0.0 2.6 0.00 0.00 0.00 26 1016.0
20260504035622 55 211 0.0 1.7 0.00 0.00 0.00 25 1015.9
20260504035027 56 220 0.0 1.7 0.00 0.00 0.00 23 1016.0
20260504034646 56 220 0.0 2.6 0.00 0.00 0.00 23 1016.1
20260504034052 56 219 0.9 2.6 0.00 0.00 0.00 23 1016.2
20260504033608 57 15 0.0 1.7 0.00 0.00 0.00 22 1016.0
20260504033203 56 15 0.0 0.9 0.00 0.00 0.00 22 1015.8
20260504032601 56 15 0.0 1.7 0.00 0.00 0.00 22 1015.7
20260504032114 56 15 0.9 2.6 0.00 0.00 0.00 22 1015.7
20260504031658 56 15 0.9 3.5 0.00 0.00 0.00 21 1015.8
20260504031114 56 29 0.0 2.6 0.00 0.00 0.00 21 1015.7
20260504030600 56 30 0.9 2.6 0.00 0.00 0.00 22 1015.8
20260504030210 56 12 0.9 2.6 0.00 0.00 0.00 22 1015.8
20260504025601 57 13 0.9 2.6 0.00 0.00 0.00 24 1015.8
20260504025107 57 302 0.9 3.5 0.00 0.00 0.00 23 1015.8
20260504024615 57 284 0.9 3.5 0.00 0.00 0.00 23 1015.8
20260504024056 57 264 0.9 2.6 0.00 0.00 0.00 23 1015.8
20260504023602 57 251 0.9 4.3 0.00 0.00 0.00 23 1015.8
20260504023153 57 279 0.9 4.3 0.00 0.00 0.00 23 1015.7
20260504022727 57 266 1.7 5.2 0.00 0.00 0.00 22 1015.8
20260504022625 57 255 0.9 5.2 0.00 0.00 0.00 23 1015.7
20260504022523 58 225 1.7 5.2 0.00 0.00 0.00 23 1015.8
20260504022421 58 251 0.9 3.5 0.00 0.00 0.00 23 1015.9
20260504020551 58 250 0.9 5.2 0.00 0.00 0.00 23 1015.9
20260504020115 58 233 1.7 5.2 0.00 0.00 0.00 23 1015.9
20260504015611 59 260 0.9 2.6 0.00 0.00 0.00 23 1016.0
20260504015123 59 248 0.0 1.7 0.00 0.00 0.00 23 1016.0
20260504014559 59 257 0.0 4.3 0.00 0.00 0.00 23 1015.9
20260504014120 60 212 0.9 4.3 0.00 0.00 0.00 23 1015.8
20260504013605 60 209 0.9 4.3 0.00 0.00 0.00 23 1015.7
20260504013121 60 181 0.9 5.2 0.00 0.00 0.00 23 1015.9
20260504012554 60 244 1.7 5.2 0.00 0.00 0.00 23 1015.9
20260504012052 60 180 0.9 5.2 0.00 0.00 0.00 23 1015.9
20260504011624 60 210 2.6 6.1 0.00 0.00 0.00 22 1015.9
20260504011103 60 163 1.7 4.3 0.00 0.00 0.00 22 1016.0
20260504010629 60 195 1.7 4.3 0.00 0.00 0.00 22 1016.0
20260504010110 60 215 1.7 4.3 0.00 0.00 0.00 21 1016.0
20260504005615 60 252 1.7 4.3 0.00 0.00 0.00 20 1016.0
20260504005110 61 162 1.7 7.0 0.00 0.00 0.00 21 1016.1
20260504004611 61 255 2.6 7.0 0.00 0.00 0.00 21 1016.0
20260504004110 61 157 0.9 3.5 0.00 0.00 0.00 21 1016.1
20260504004041 61 259 0.0 6.1 0.00 0.00 0.00 22 1016.1
20260504003119 61 263 0.9 9.6 0.00 0.00 0.00 21 1016.2
20260504002615 61 271 3.5 9.6 0.00 0.00 0.00 21 1016.3
20260504002102 61 331 2.6 7.0 0.00 0.00 0.00 21 1016.2
20260504001630 62 260 1.7 7.0 0.00 0.00 0.00 20 1016.3
20260504001050 62 220 1.7 9.6 0.00 0.00 0.00 21 1016.4
20260504000610 62 188 1.7 7.0 0.00 0.00 0.00 22 1016.4
20260504000141 62 196 0.9 7.8 0.00 0.00 0.00 21 1016.5
20260503235545 62 319 1.7 8.7 0.00 0.00 0.00 21 1016.4
20260503235132 62 267 1.7 8.7 0.00 0.00 0.00 21 1016.5
20260503235020 62 247 2.6 7.0 0.00 0.00 0.00 20 1016.5
20260503234915 62 261 0.9 6.1 0.00 0.00 0.00 19 1016.6
20260503234815 62 309 1.7 6.1 0.00 0.00 0.00 19 1016.6
20260503234743 62 309 1.7 6.1 0.00 0.00 0.00 19 1016.6
20260503233143 62 264 1.7 7.8 0.00 0.00 0.00 19 1016.6
20260503232550 62 323 2.6 12.2 0.00 0.00 0.00 19 1016.6
20260503232052 62 242 3.5 12.2 0.00 0.00 0.00 18 1016.6
20260503231615 63 184 1.7 6.1 0.00 0.00 0.00 19 1016.6
20260503231105 62 231 0.9 6.1 0.00 0.00 0.00 22 1016.7
20260503230609 62 237 0.9 4.3 0.00 0.00 0.00 21 1016.8
20260503230215 62 181 1.7 4.3 0.00 0.00 0.00 22 1016.7
20260503225550 62 225 1.7 5.2 0.00 0.00 0.00 22 1016.8
20260503225113 61 195 2.6 7.0 0.00 0.00 0.00 22 1016.9
20260503224627 61 194 2.6 8.7 0.00 0.00 0.00 21 1016.9
20260503224050 62 119 4.3 10.4 0.00 0.00 0.00 23 1016.9
20260503223612 62 192 5.2 10.4 0.00 0.00 0.00 22 1016.9
20260503223137 62 232 2.6 9.6 0.00 0.00 0.00 22 1017.0
20260503222602 62 246 2.6 9.6 0.00 0.00 0.00 21 1017.0
20260503222047 62 327 1.7 7.8 0.00 0.00 0.00 21 1017.1
20260503221624 62 282 3.5 7.8 0.00 0.00 0.00 21 1017.2
20260503221110 62 345 1.7 5.2 0.00 0.00 0.00 23 1017.2
20260503220552 62 275 1.7 7.0 0.00 0.00 0.00 22 1017.4
20260503220122 62 288 2.6 7.0 0.00 0.00 0.00 23 1017.5
20260503215615 62 334 2.6 9.6 0.00 0.00 0.00 22 1017.6